This is the latest recevied weather packets stored in our database for station/object KF0EZB. If no packets are shown the sender has not sent any weather packets the latest 10 day(s).
| Time | Temp. | Humidity | Pressure | Rain* | Wind** | Luminosity | Snow |
|---|---|---|---|---|---|---|---|
| 1777915162 | 27.78° C | 29% | 1003.9 hPa | 0 mm | - | 753 W/m² | - |
| 1777914860 | 29.44° C | 27% | 1003.9 hPa | 0 mm | - | 749 W/m² | - |
| 1777914557 | 28.33° C | 28% | 1004 hPa | 0 mm | - | 729 W/m² | - |
| 1777914253 | 27.78° C | 28% | 1004 hPa | 0 mm | - | 707 W/m² | - |
| 1777913950 | 27.22° C | 29% | 1004 hPa | 0 mm | - | 726 W/m² | - |
| 1777913646 | 27.78° C | 28% | 1003.9 hPa | 0 mm | - | 749 W/m² | - |
| 1777913343 | 27.22° C | 29% | 1004 hPa | 0 mm | - | 770 W/m² | - |
| 1777913040 | 27.22° C | 31% | 1004.1 hPa | 0 mm | - | 777 W/m² | - |
| 1777912735 | 27.78° C | 30% | 1003.9 hPa | 0 mm | - | 776 W/m² | - |
| 1777912432 | 26.67° C | 33% | 1004.1 hPa | 0 mm | - | 741 W/m² | - |
| 1777912128 | 26.67° C | 32% | 1004.2 hPa | 0 mm | - | 705 W/m² | - |
| 1777911824 | 27.22° C | 33% | 1004.3 hPa | 0 mm | - | 704 W/m² | - |
| 1777911521 | 26.67° C | 33% | 1004.1 hPa | 0 mm | - | 726 W/m² | - |
| 1777911218 | 26.11° C | 33% | 1004.2 hPa | 0 mm | - | 779 W/m² | - |
| 1777910915 | 26.67° C | 31% | 1004.1 hPa | 0 mm | - | 729 W/m² | - |
| 1777910612 | 26.67° C | 31% | 1003.9 hPa | 0 mm | - | 774 W/m² | - |
| 1777910309 | 26.11° C | 31% | 1004.1 hPa | 0 mm | - | 517 W/m² | - |
| 1777910006 | 25.56° C | 32% | 1003.9 hPa | 0 mm | - | 486 W/m² | - |
| 1777909703 | 25.56° C | 33% | 1003.7 hPa | 0 mm | - | 704 W/m² | - |
| 1777909400 | 25° C | 35% | 1003.6 hPa | 0 mm | - | 637 W/m² | - |
| 1777909098 | 23.89° C | 37% | 1003.7 hPa | 0 mm | - | 622 W/m² | - |
| 1777908795 | 23.33° C | 37% | 1003.6 hPa | 0 mm | - | 555 W/m² | - |
| 1777908492 | 23.33° C | 38% | 1003.5 hPa | 0 mm | - | 272 W/m² | - |
| 1777908189 | 22.22° C | 39% | 1003.6 hPa | 0 mm | - | 668 W/m² | - |
| 1777907885 | 22.22° C | 38% | 1003.6 hPa | 0 mm | - | 627 W/m² | - |
* Rain latest hour (hover to see other rain measurements)
** Current wind speed in m/s (hover to see current wind gust speed)